This demonstration page uses our WeatherBlox Daily Observations layout. Learn more.

Left ArrowRight Arrow

Hourly Observations for December 5, 2015

Temp ( °F °C ) Dew Point ( °F °C ) Humidity (%) Winds ( mph kmh ) Pressure ( in mb ) Visibility ( mi km ) Precip ( " mm )
12:53 am 00:53 Clear 43 6.1 39 3.9 86 86 NNW 5 7 30.28 1026 10 16 0.00 0.00
1:53 am 01:53 Clear 44 6.7 39 3.9 83 83 NW 6 9 30.28 1025 10 16 0.00 0.00
2:53 am 02:53 Clear 42 5.6 38 3.3 85 85 Calm 30.27 1025 10 16 0.00 0.00
3:53 am 03:53 Clear 41 5 37 2.8 86 86 NW 5 7 30.25 1025 10 16 0.00 0.00
4:53 am 04:53 Clear 42 5.6 38 3.3 85 85 N 3 6 30.25 1024 10 16 0.00 0.00
5:53 am 05:53 Clear 40 4.4 36 2.2 86 86 WNW 3 6 30.25 1025 9 14 0.00 0.00
6:53 am 06:53 Clear 39 3.9 35 1.7 86 86 Calm 30.25 1024 10 16 0.00 0.00
7:53 am 07:53 Sunny 39 3.9 35 1.7 86 86 Calm 30.28 1025 10 16 0.00 0.00
8:53 am 08:53 Sunny 41 5 37 2.8 86 86 Calm 30.29 1026 10 16 0.00 0.00
9:53 am 09:53 Sunny 44 6.7 40 4.4 85 85 Calm 30.31 1026 10 16 0.00 0.00
10:53 am 10:53 Sunny 46 7.8 42 5.6 86 86 Calm 30.31 1026 10 16 0.00 0.00
11:53 am 11:53 Sunny 50 10 43 6.1 77 77 Calm 30.28 1025 10 16 0.00 0.00
12:53 pm 12:53 Sunny 52 11.1 39 3.9 61 61 Calm 30.25 1025 10 16 0.00 0.00
1:53 pm 13:53 Sunny 52 11.1 40 4.4 64 64 ESE 5 7 30.23 1024 10 16 0.00 0.00
2:53 pm 14:53 Sunny 52 11.1 39 3.9 61 61 ESE 5 7 30.23 1024 10 16 0.00 0.00
3:53 pm 15:53 Sunny 51 10.6 39 3.9 64 64 Calm 30.23 1024 10 16 0.00 0.00
4:53 pm 16:53 Mostly Cloudy 48 8.9 40 4.4 74 74 Calm 30.22 1023 10 16 0.00 0.00
5:53 pm 17:53 Clear 48 8.9 41 5 77 77 Calm 30.22 1023 10 16 0.00 0.00
6:53 pm 18:53 Clear 47 8.3 41 5 80 80 Calm 30.20 1023 10 16 0.00 0.00
7:53 pm 19:53 Mostly Clear 47 8.3 41 5 80 80 Calm 30.21 1023 10 16 0.00 0.00
8:53 pm 20:53 Mostly Cloudy 46 7.8 41 5 83 83 E 3 6 30.19 1023 10 16 0.00 0.00
9:53 pm 21:53 Cloudy 47 8.3 41 5 80 80 Calm 30.22 1024 10 16 0.00 0.00
10:53 pm 22:53 Cloudy with Light Rain 46 7.8 41 5 83 83 NNE 3 6 30.22 1023 7 11 0.00 0.03
11:53 pm 23:53 Cloudy with Light Rain 46 7.8 41 5 83 83 N 3 6 30.22 1023 9 14 0.03 0.76

Powered by AerisWeather